TimeCST,TemperatureF,Dew PointF,Humidity,Sea Level PressureIn,VisibilityMPH,Wind Direction,Wind SpeedMPH,Gust SpeedMPH,PrecipitationIn,Events,Conditions,WindDirDegrees,DateUTC
12:15 AM,17.6,12.2,79,30.11,10.0,West,9.2,-,N/A,,Clear,260,2013-01-06 06:15:00
12:35 AM,12.2,8.6,85,30.11,10.0,SW,6.9,-,N/A,,Clear,230,2013-01-06 06:35:00
12:55 AM,12.2,8.6,85,30.11,10.0,Calm,Calm,-,N/A,,Clear,0,2013-01-06 06:55:00
1:15 AM,10.4,8.6,92,30.11,10.0,WSW,4.6,-,N/A,,Clear,250,2013-01-06 07:15:00
1:35 AM,10.4,8.6,92,30.10,10.0,SW,3.5,-,N/A,,Clear,230,2013-01-06 07:35:00
1:55 AM,10.4,8.6,92,30.10,10.0,Calm,Calm,-,N/A,,Clear,0,2013-01-06 07:55:00
2:15 AM,12.2,8.6,85,30.09,10.0,SSW,4.6,-,N/A,,Clear,210,2013-01-06 08:15:00
2:35 AM,12.2,8.6,85,30.09,10.0,SW,6.9,-,N/A,,Clear,220,2013-01-06 08:35:00
2:55 AM,10.4,8.6,92,30.08,10.0,South,3.5,-,N/A,,Clear,180,2013-01-06 08:55:00
3:15 AM,10.4,8.6,92,30.08,10.0,Calm,Calm,-,N/A,,Clear,0,2013-01-06 09:15:00
3:35 AM,10.4,8.6,92,30.07,10.0,Calm,Calm,-,N/A,,Clear,0,2013-01-06 09:35:00
3:55 AM,8.6,6.8,92,30.06,10.0,Calm,Calm,-,N/A,,Clear,0,2013-01-06 09:55:00
4:15 AM,6.8,5.0,92,30.06,10.0,Calm,Calm,-,N/A,,Clear,0,2013-01-06 10:15:00
4:35 AM,6.8,3.2,85,30.04,10.0,SW,3.5,-,N/A,,Clear,230,2013-01-06 10:35:00
4:55 AM,6.8,5.0,92,30.03,10.0,Calm,Calm,-,N/A,,Clear,0,2013-01-06 10:55:00
5:15 AM,5.0,1.4,85,30.02,10.0,Calm,Calm,-,N/A,,Clear,0,2013-01-06 11:15:00
5:35 AM,5.0,1.4,85,30.01,10.0,Calm,Calm,-,N/A,,Clear,0,2013-01-06 11:35:00
5:55 AM,5.0,1.4,85,30.00,10.0,Calm,Calm,-,N/A,,Clear,0,2013-01-06 11:55:00
6:15 AM,5.0,1.4,85,30.00,10.0,Calm,Calm,-,N/A,,Clear,0,2013-01-06 12:15:00
6:35 AM,5.0,1.4,85,29.98,10.0,Calm,Calm,-,N/A,,Clear,0,2013-01-06 12:35:00
6:55 AM,3.2,-0.4,85,29.98,10.0,Calm,Calm,-,N/A,,Clear,0,2013-01-06 12:55:00
7:15 AM,1.4,-0.4,92,29.97,10.0,Calm,Calm,-,N/A,,Clear,0,2013-01-06 13:15:00
7:35 AM,3.2,-0.4,85,29.96,10.0,Calm,Calm,-,N/A,,Clear,0,2013-01-06 13:35:00
7:55 AM,-0.4,-2.2,92,29.96,10.0,Calm,Calm,-,N/A,,Clear,0,2013-01-06 13:55:00
8:35 AM,3.2,-0.4,85,29.93,10.0,Calm,Calm,-,N/A,,Clear,0,2013-01-06 14:35:00
8:55 AM,5.0,1.4,85,29.92,10.0,SSE,3.5,-,N/A,,Clear,160,2013-01-06 14:55:00
9:15 AM,1.4,-0.4,92,29.91,10.0,Calm,Calm,-,N/A,,Clear,0,2013-01-06 15:15:00
9:35 AM,5.0,1.4,85,29.90,10.0,Calm,Calm,-,N/A,,Clear,0,2013-01-06 15:35:00
9:55 AM,6.8,3.2,85,29.89,10.0,Calm,Calm,-,N/A,,Clear,0,2013-01-06 15:55:00
10:15 AM,6.8,5.0,92,29.88,10.0,SE,4.6,-,N/A,,Clear,140,2013-01-06 16:15:00
10:35 AM,8.6,6.8,92,29.87,10.0,Calm,Calm,-,N/A,,Clear,0,2013-01-06 16:35:00
10:55 AM,10.4,8.6,92,29.86,10.0,Calm,Calm,-,N/A,,Clear,0,2013-01-06 16:55:00
11:35 AM,17.6,15.8,93,29.84,10.0,SE,5.8,-,N/A,,Clear,140,2013-01-06 17:35:00
11:55 AM,17.6,15.8,93,29.84,10.0,NNE,3.5,-,N/A,,Clear,20,2013-01-06 17:55:00
12:15 PM,17.6,15.8,93,29.82,10.0,Calm,Calm,-,N/A,,Clear,0,2013-01-06 18:15:00
12:35 PM,19.4,15.8,86,29.80,10.0,Calm,Calm,-,N/A,,Clear,0,2013-01-06 18:35:00
12:55 PM,19.4,15.8,86,29.79,10.0,NNW,5.8,-,N/A,,Clear,340,2013-01-06 18:55:00
1:15 PM,21.2,15.8,80,29.79,10.0,Calm,Calm,-,N/A,,Clear,0,2013-01-06 19:15:00
1:35 PM,24.8,15.8,69,29.77,10.0,SW,8.1,-,N/A,,Clear,230,2013-01-06 19:35:00
1:55 PM,28.4,17.6,64,29.75,10.0,SW,12.7,-,N/A,,Clear,220,2013-01-06 19:55:00
2:15 PM,28.4,17.6,64,29.74,10.0,WSW,10.4,-,N/A,,Clear,240,2013-01-06 20:15:00
2:35 PM,30.2,17.6,60,29.73,10.0,SW,12.7,-,N/A,,Clear,230,2013-01-06 20:35:00
2:55 PM,30.2,17.6,60,29.72,10.0,SW,12.7,-,N/A,,Clear,220,2013-01-06 20:55:00
3:15 PM,30.2,17.6,60,29.73,10.0,SW,13.8,-,N/A,,Clear,230,2013-01-06 21:15:00
3:35 PM,30.2,19.4,64,29.72,10.0,SW,15.0,-,N/A,,Partly Cloudy,230,2013-01-06 21:35:00
3:55 PM,30.2,19.4,64,29.73,10.0,SW,16.1,20.7,N/A,,Partly Cloudy,230,2013-01-06 21:55:00
4:15 PM,30.2,19.4,64,29.73,10.0,WSW,12.7,-,N/A,,Partly Cloudy,240,2013-01-06 22:15:00
4:35 PM,30.2,19.4,64,29.72,10.0,SW,12.7,-,N/A,,Partly Cloudy,230,2013-01-06 22:35:00
4:55 PM,28.4,19.4,69,29.72,10.0,SW,17.3,-,N/A,,Partly Cloudy,230,2013-01-06 22:55:00
5:15 PM,28.4,19.4,69,29.72,10.0,West,10.4,-,N/A,,Clear,260,2013-01-06 23:15:00
5:35 PM,26.6,17.6,69,29.71,10.0,SW,15.0,-,N/A,,Clear,230,2013-01-06 23:35:00
5:55 PM,28.4,17.6,64,29.71,10.0,WSW,13.8,-,N/A,,Clear,240,2013-01-06 23:55:00
6:15 PM,26.6,17.6,69,29.72,10.0,WSW,11.5,-,N/A,,Clear,240,2013-01-07 00:15:00
6:35 PM,28.4,17.6,64,29.71,10.0,WSW,10.4,-,N/A,,Clear,240,2013-01-07 00:35:00
6:55 PM,28.4,19.4,69,29.72,10.0,WSW,10.4,-,N/A,,Scattered Clouds,240,2013-01-07 00:55:00
7:15 PM,26.6,19.4,74,29.72,10.0,WSW,9.2,-,N/A,,Clear,240,2013-01-07 01:15:00
7:35 PM,26.6,19.4,74,29.71,10.0,SW,9.2,-,N/A,,Clear,230,2013-01-07 01:35:00
7:55 PM,24.8,17.6,74,29.72,10.0,SW,11.5,-,N/A,,Clear,230,2013-01-07 01:55:00
8:15 PM,24.8,17.6,74,29.72,10.0,West,6.9,-,N/A,,Clear,260,2013-01-07 02:15:00
8:35 PM,24.8,17.6,74,29.72,10.0,WSW,8.1,-,N/A,,Clear,240,2013-01-07 02:35:00
9:15 PM,24.8,17.6,74,29.72,10.0,WSW,8.1,-,N/A,,Clear,240,2013-01-07 03:15:00
9:35 PM,24.8,17.6,74,29.72,10.0,WSW,8.1,-,N/A,,Clear,250,2013-01-07 03:35:00
9:55 PM,24.8,17.6,74,29.71,10.0,WSW,11.5,-,N/A,,Clear,240,2013-01-07 03:55:00
10:15 PM,24.8,17.6,74,29.71,10.0,SW,9.2,-,N/A,,Clear,230,2013-01-07 04:15:00
10:35 PM,26.6,19.4,74,29.71,10.0,SW,11.5,-,N/A,,Clear,230,2013-01-07 04:35:00
10:55 PM,24.8,19.4,80,29.71,10.0,SW,11.5,-,N/A,,Clear,230,2013-01-07 04:55:00
11:35 PM,24.8,17.6,74,29.72,10.0,WSW,9.2,-,N/A,,Clear,250,2013-01-07 05:35:00
11:55 PM,28.4,19.4,69,29.72,10.0,WSW,12.7,-,N/A,,Clear,250,2013-01-07 05:55:00